When you browse on this site, cookies collect data to enhance your experience and personalize the content and advertising you see.
Visit our Privacy Policy to learn more. By continuing to use the site, you agree to this use of cookies and data.
  • In Belgien
  • Länderverzeichnis
  • Für 7 Tage
  • Wassertemperatur
  • Satellitenkarten
  • Wetterkarte
  • Widgets
  • user-avatar
    Anmelden

    Stündliche Wetter Biskira

    Heute, 18 Juli, Donnerstag

    Zeit Temperatur Niederschläge Wind Luftdruck Luftfeuchtigkeit
    00:00 +37°C° 0.1 mm 3 m/S 750 mmHg 26%
    01:00 +36°C° 0 mm 3 m/S 750 mmHg 27%
    02:00 +35°C° 0 mm 3 m/S 749 mmHg 29%
    03:00 +34°C° 0 mm 3 m/S 749 mmHg 31%
    04:00 +34°C° 0 mm 4 m/S 749 mmHg 32%
    05:00 +34°C° 0 mm 5 m/S 749 mmHg 33%
    06:00 +34°C° 0 mm 5 m/S 749 mmHg 33%
    07:00 +36°C° 0 mm 6 m/S 750 mmHg 31%
    08:00 +38°C° 0 mm 6 m/S 750 mmHg 28%
    09:00 +40°C° 0 mm 7 m/S 750 mmHg 25%
    10:00 +41°C° 0 mm 7 m/S 750 mmHg 23%
    11:00 +42°C° 0 mm 6 m/S 750 mmHg 21%
    12:00 +44°C° 0 mm 6 m/S 749 mmHg 19%
    13:00 +44°C° 0 mm 6 m/S 749 mmHg 17%
    14:00 +45°C° 0 mm 6 m/S 749 mmHg 15%
    15:00 +46°C° 0 mm 7 m/S 748 mmHg 13%
    16:00 +45°C° 0 mm 6 m/S 748 mmHg 12%
    17:00 +45°C° 0 mm 6 m/S 749 mmHg 12%
    18:00 +44°C° 0 mm 6 m/S 749 mmHg 12%
    19:00 +41°C° 0 mm 6 m/S 749 mmHg 15%
    20:00 +40°C° 0 mm 6 m/S 750 mmHg 18%
    21:00 +39°C° 0 mm 7 m/S 751 mmHg 20%
    22:00 +38°C° 0 mm 6 m/S 751 mmHg 22%
    23:00 +36°C° 0 mm 5 m/S 751 mmHg 23%

    Morgen, 19 Juli, Freitag

    Zeit Temperatur Niederschläge Wind Luftdruck Luftfeuchtigkeit
    00:00 +35°C° 0 mm 3 m/S 751 mmHg 25%
    01:00 +35°C° 0 mm 3 m/S 751 mmHg 25%
    02:00 +34°C° 0 mm 3 m/S 751 mmHg 26%
    03:00 +34°C° 0 mm 3 m/S 751 mmHg 26%
    04:00 +34°C° 0 mm 3 m/S 751 mmHg 26%
    05:00 +34°C° 0 mm 3 m/S 751 mmHg 26%
    06:00 +34°C° 0 mm 2 m/S 752 mmHg 27%
    07:00 +35°C° 0 mm 3 m/S 752 mmHg 27%
    08:00 +35°C° 0 mm 4 m/S 752 mmHg 27%
    09:00 +36°C° 0 mm 5 m/S 752 mmHg 28%
    10:00 +37°C° 0 mm 5 m/S 752 mmHg 27%
    11:00 +39°C° 0 mm 5 m/S 752 mmHg 26%
    12:00 +40°C° 0 mm 5 m/S 752 mmHg 25%
    13:00 +41°C° 0 mm 4 m/S 751 mmHg 24%
    14:00 +40°C° 0 mm 3 m/S 751 mmHg 22%
    15:00 +42°C° 0 mm 3 m/S 750 mmHg 21%
    16:00 +42°C° 0 mm 3 m/S 750 mmHg 21%
    17:00 +42°C° 0 mm 3 m/S 750 mmHg 21%
    18:00 +42°C° 0 mm 3 m/S 751 mmHg 21%
    19:00 +40°C° 0 mm 3 m/S 751 mmHg 23%
    20:00 +38°C° 0 mm 3 m/S 751 mmHg 25%
    21:00 +37°C° 0 mm 3 m/S 751 mmHg 27%
    22:00 +37°C° 0 mm 3 m/S 751 mmHg 27%
    23:00 +36°C° 0 mm 2 m/S 751 mmHg 28%

    übermorgen, 20 Juli, Samstag

    Zeit Temperatur Niederschläge Wind Luftdruck Luftfeuchtigkeit
    00:00 +36°C° 0 mm 2 m/S 751 mmHg 28%
    01:00 +35°C° 0 mm 4 m/S 751 mmHg 29%
    02:00 +35°C° 0 mm 5 m/S 751 mmHg 31%
    03:00 +34°C° 0 mm 7 m/S 751 mmHg 32%
    04:00 +33°C° 0 mm 7 m/S 752 mmHg 35%
    05:00 +33°C° 0 mm 6 m/S 752 mmHg 37%
    06:00 +32°C° 0 mm 6 m/S 752 mmHg 39%
    07:00 +34°C° 0 mm 6 m/S 752 mmHg 36%
    08:00 +35°C° 0 mm 6 m/S 753 mmHg 32%
    09:00 +36°C° 0 mm 5 m/S 753 mmHg 28%
    10:00 +37°C° 0 mm 5 m/S 753 mmHg 26%
    11:00 +38°C° 0 mm 4 m/S 753 mmHg 24%
    12:00 +40°C° 0 mm 4 m/S 753 mmHg 22%
    13:00 +40°C° 0 mm 3 m/S 752 mmHg 21%
    14:00 +41°C° 0 mm 2 m/S 752 mmHg 20%
    15:00 +41°C° 0 mm 1 m/S 751 mmHg 19%
    16:00 +41°C° 0 mm 1 m/S 751 mmHg 19%
    17:00 +41°C° 0 mm 2 m/S 751 mmHg 19%
    18:00 +42°C° 0 mm 2 m/S 751 mmHg 19%
    19:00 +41°C° 0 mm 2 m/S 752 mmHg 20%
    20:00 +40°C° 0 mm 2 m/S 752 mmHg 22%
    21:00 +38°C° 0 mm 2 m/S 753 mmHg 23%
    22:00 +38°C° 0 mm 2 m/S 753 mmHg 25%
    23:00 +36°C° 0 mm 1 m/S 753 mmHg 26%

    21 Juli, Sonntag

    Zeit Temperatur Niederschläge Wind Luftdruck Luftfeuchtigkeit
    00:00 +36°C° 0 mm 1 m/S 752 mmHg 27%
    01:00 +36°C° 0 mm 2 m/S 752 mmHg 28%
    02:00 +35°C° 0 mm 3 m/S 752 mmHg 29%
    03:00 +35°C° 0 mm 4 m/S 752 mmHg 30%
    04:00 +34°C° 0 mm 4 m/S 752 mmHg 32%
    05:00 +34°C° 0 mm 5 m/S 753 mmHg 35%
    06:00 +33°C° 0 mm 5 m/S 753 mmHg 38%
    07:00 +34°C° 0 mm 5 m/S 753 mmHg 34%
    08:00 +36°C° 0 mm 5 m/S 753 mmHg 31%
    09:00 +38°C° 0 mm 6 m/S 754 mmHg 28%
    10:00 +39°C° 0 mm 5 m/S 753 mmHg 25%
    11:00 +41°C° 0 mm 4 m/S 753 mmHg 23%
    12:00 +42°C° 0 mm 4 m/S 753 mmHg 20%
    13:00 +42°C° 0 mm 3 m/S 752 mmHg 19%
    14:00 +42°C° 0 mm 2 m/S 752 mmHg 18%
    15:00 +43°C° 0 mm 2 m/S 752 mmHg 17%
    16:00 +43°C° 0 mm 2 m/S 752 mmHg 17%
    17:00 +43°C° 0 mm 3 m/S 752 mmHg 17%
    18:00 +43°C° 0 mm 3 m/S 752 mmHg 17%
    19:00 +42°C° 0 mm 3 m/S 752 mmHg 19%
    20:00 +40°C° 0 mm 3 m/S 753 mmHg 20%
    21:00 +39°C° 0 mm 3 m/S 753 mmHg 21%
    22:00 +37°C° 0 mm 4 m/S 753 mmHg 26%
    23:00 +35°C° 0 mm 5 m/S 753 mmHg 31%

    22 Juli, Montag

    Zeit Temperatur Niederschläge Wind Luftdruck Luftfeuchtigkeit
    00:00 +34°C° 0 mm 6 m/S 753 mmHg 35%
    01:00 +33°C° 0 mm 6 m/S 753 mmHg 35%
    02:00 +32°C° 0 mm 5 m/S 753 mmHg 35%
    03:00 +30°C° 0 mm 5 m/S 753 mmHg 35%
    04:00 +30°C° 0 mm 4 m/S 754 mmHg 37%
    05:00 +30°C° 0 mm 4 m/S 754 mmHg 39%
    06:00 +29°C° 0 mm 4 m/S 754 mmHg 41%
    07:00 +32°C° 0 mm 4 m/S 754 mmHg 38%
    08:00 +33°C° 0 mm 4 m/S 755 mmHg 35%
    09:00 +34°C° 0 mm 4 m/S 755 mmHg 32%
    10:00 +35°C° 0 mm 4 m/S 755 mmHg 29%
    11:00 +37°C° 0 mm 4 m/S 754 mmHg 26%
    12:00 +38°C° 0 mm 4 m/S 754 mmHg 24%
    13:00 +38°C° 0 mm 4 m/S 753 mmHg 23%
    14:00 +39°C° 0 mm 3 m/S 753 mmHg 23%
    15:00 +39°C° 0 mm 3 m/S 752 mmHg 22%
    16:00 +39°C° 0 mm 2 m/S 752 mmHg 22%
    17:00 +39°C° 0 mm 2 m/S 752 mmHg 22%
    18:00 +39°C° 0 mm 2 m/S 752 mmHg 22%
    19:00 +38°C° 0 mm 2 m/S 752 mmHg 23%
    20:00 +37°C° 0 mm 2 m/S 752 mmHg 25%
    21:00 +36°C° 0 mm 2 m/S 753 mmHg 26%
    22:00 +35°C° 0 mm 3 m/S 753 mmHg 26%
    23:00 +35°C° 0 mm 5 m/S 753 mmHg 26%

    23 Juli, Dienstag

    Zeit Temperatur Niederschläge Wind Luftdruck Luftfeuchtigkeit
    00:00 +34°C° 0 mm 6 m/S 753 mmHg 26%
    01:00 +33°C° 0 mm 5 m/S 752 mmHg 28%
    02:00 +32°C° 0 mm 4 m/S 752 mmHg 30%
    03:00 +30°C° 0 mm 3 m/S 752 mmHg 33%
    04:00 +29°C° 0 mm 3 m/S 752 mmHg 34%
    05:00 +29°C° 0 mm 3 m/S 753 mmHg 36%
    06:00 +29°C° 0 mm 3 m/S 753 mmHg 38%
    07:00 +30°C° 0 mm 3 m/S 753 mmHg 35%
    08:00 +31°C° 0 mm 3 m/S 753 mmHg 33%
    09:00 +33°C° 0 mm 3 m/S 753 mmHg 31%
    10:00 +34°C° 0 mm 3 m/S 753 mmHg 28%
    11:00 +36°C° 0 mm 3 m/S 752 mmHg 24%
    12:00 +37°C° 0 mm 3 m/S 752 mmHg 21%
    13:00 +38°C° 0 mm 3 m/S 751 mmHg 20%
    14:00 +39°C° 0 mm 2 m/S 751 mmHg 19%
    15:00 +40°C° 0 mm 2 m/S 750 mmHg 18%
    16:00 +39°C° 0 mm 2 m/S 750 mmHg 18%
    17:00 +39°C° 0 mm 2 m/S 750 mmHg 18%
    18:00 +39°C° 0 mm 2 m/S 750 mmHg 18%
    19:00 +38°C° 0 mm 2 m/S 750 mmHg 19%
    20:00 +38°C° 0 mm 2 m/S 750 mmHg 20%
    21:00 +37°C° 0 mm 2 m/S 751 mmHg 21%
    22:00 +36°C° 0 mm 2 m/S 750 mmHg 22%
    23:00 +35°C° 0 mm 2 m/S 750 mmHg 23%
    Mehr zeigen